Location: Nassau
(25.0830°N, 77.3500°W)
Time: 16:10:37
(UTC-05:00)

ISS - All Passes

Search period start: 09 December 2016 00:00
Search period end: 19 December 2016 00:00
Orbit: 401 x 410 km, 51.6° (Epoch: 10 December)

Date Brightness Start Highest point End Pass type
(mag) Time Alt. Az. Time Alt. Az. Time Alt. Az.
09 Dec - 14:05:49 10° WSW 14:08:58 47° NW 14:12:09 10° NNE daylight
09 Dec - 22:16:37 10° NNW 22:19:41 35° NE 22:22:44 10° ESE night (unlit)
09 Dec - 23:55:08 10° WSW 23:55:52 11° SW 23:56:35 10° SW night (unlit)
10 Dec - 13:13:48 10° SSW 13:17:01 65° SE 13:20:16 10° NE daylight
10 Dec - 21:25:20 10° N 21:27:37 17° NE 21:29:52 10° E night (unlit)
10 Dec - 23:01:19 10° WNW 23:04:03 24° SW 23:06:46 10° S night (unlit)
11 Dec - 12:22:24 10° S 12:25:08 25° SE 12:27:53 10° ENE daylight
11 Dec - 13:59:27 10° W 14:01:35 16° NW 14:03:45 10° N daylight
11 Dec - 22:08:54 10° NW 22:12:09 61° SW 22:15:24 10° SSE night (unlit)
12 Dec - 11:32:25 10° SE 11:33:18 11° SE 11:34:11 10° ESE daylight
12 Dec - 13:06:30 10° WSW 13:09:29 33° NW 13:12:30 10° NNE daylight
12 Dec - 21:16:58 10° NNW 21:20:11 50° NE 21:23:23 10° SE night (unlit)
13 Dec - 12:14:14 10° SW 12:17:28 86° NW 12:20:45 10° NE daylight
13 Dec - 20:25:26 10° N 20:28:06 22° NE 20:30:46 10° E night (unlit)
13 Dec - 22:02:08 10° W 22:04:26 18° SW 22:06:44 10° S night (unlit)
14 Dec - 11:22:31 10° SSW 11:25:31 35° SE 11:28:32 10° ENE daylight
14 Dec - 13:00:35 10° WNW 13:02:05 13° NW 13:03:36 10° NNW daylight
14 Dec - 19:34:47 10° NNE 19:35:55 11° NE 19:37:02 10° ENE night (unlit)
14 Dec - 21:09:24 10° NW 21:12:32 42° SW 21:15:39 10° SSE night (unlit)
15 Dec - 10:31:41 10° SSE 10:33:38 15° SE 10:35:35 10° E daylight
15 Dec - 12:07:10 10° WSW 12:09:54 25° NW 12:12:40 10° NNE daylight
15 Dec - 20:17:15 10° NW 20:20:32 72° NE 20:23:49 10° SE night (unlit)
16 Dec - 11:14:37 10° SW 11:17:49 59° NW 11:21:02 10° NNE daylight
16 Dec - 19:25:32 10° NNW 19:28:28 29° NE 19:31:24 10° ESE visible
16 Dec - 21:03:06 10° W 21:04:42 13° SW 21:06:18 10° SSW night (unlit)
17 Dec - 10:22:39 10° SSW 10:25:48 50° SE 10:28:58 10° NE daylight
17 Dec - 18:34:21 10° N 18:36:17 15° NE 18:38:12 10° ENE visible
17 Dec - 20:09:52 10° WNW 20:12:47 29° SW 20:15:42 10° S night (unlit)
18 Dec - 09:31:22 10° S 09:33:51 20° SE 09:36:20 10° ENE daylight
18 Dec - 11:07:48 10° W 11:10:13 19° NW 11:12:39 10° N daylight
18 Dec - 19:17:30 10° NW 19:20:47 79° SW 19:24:04 10° SE visible
